GFSNGP_prec_cloud_057.txt.gz
Cloud_Cover
4 5 2 0 1 17 96 81 34 10 100 100 100 91 94 4 4 7 95 92 100 100 56 5 0 0 5 53 3 0 0 0 0 0 0 0 0 0 0 0 0 0 0 0
100 64 5 0 0 5 5 5 80 3 10 100 100 100 100 39 49 39 0 5 17 36 5 5 5 3 5 5 0 0 0 0 0 0 0 0 0 0 0 0 0 0 0 0
100 100 32 6 0 0 0 0 0 4 1 98 64 100 64 88 40 74 1 2 0 0 0 4 5 5 1 2 5 5 1 0 0 0 0 0 0 0 0 0 0 0 0 0
91 100 100 14 1 0 0 0 0 0 0 3 51 100 94 67 2 0 0 0 0 0 0 1 5 0 0 4 5 5 3 0 0 0 0 0 0 0 0 0 0 0 0 0
100 100 46 100 97 8 65 0 0 4 0 0 8 84 38 100 0 0 0 0 0 0 0 1 5 1 4 0 0 5 5 0 0 0 0 0 0 0 0 0 0 0 0 0
99 100 100 95 93 4 0 0 0 12 2 2 15 100 89 99 23 0 0 0 0 0 0 5 5 3 5 5 0 0 0 5 5 0 0 0 0 0 0 0 0 0 0 0
35 100 100 99 64 0 20 28 28 67 22 14 4 100 78 28 0 1 39 47 23 0 0 5 5 1 2 5 5 4 5 36 5 0 1 0 0 0 0 0 0 0 0 0
99 100 93 33 3 2 26 96 100 100 33 0 1 4 5 33 92 97 47 55 19 28 0 0 0 0 1 5 95 80 5 5 5 3 4 1 0 0 0 0 0 0 0 0
100 100 68 88 97 91 62 100 100 100 98 100 93 72 36 87 100 100 100 100 100 99 19 2 0 0 2 5 88 14 4 5 5 5 5 4 0 0 0 0 0 0 0 0
100 97 100 100 100 100 100 100 100 100 100 100 99 91 99 100 100 88 100 100 100 100 100 96 45 9 0 0 0 5 5 5 5 3 5 0 2 26 5 0 0 0 0 0
100 100 100 100 100 100 100 100 100 100 100 100 100 100 99 100 100 95 100 100 100 100 100 100 98 44 6 73 66 9 0 2 5 4 51 9 0 0 0 0 13 0 0 0
100 100 100 100 100 100 100 100 100 100 100 100 100 100 100 100 100 100 100 100 100 100 100 100 100 99 92 100 100 100 99 95 66 18 50 33 2 0 78 67 100 100 82 54
100 100 100 100 100 100 100 100 100 100 100 100 100 100 100 100 100 100 100 100 100 100 100 100 100 100 100 100 94 100 100 100 99 72 85 34 5 12 0 44 100 100 100 100
100 100 100 100 100 100 100 100 100 100 100 100 100 100 100 100 100 100 100 100 100 100 100 100 96 100 100 100 100 100 100 100 100 97 99 90 100 56 54 29 0 0 73 54
100 100 100 100 100 100 100 100 100 100 100 100 100 100 100 100 100 100 100 100 100 100 100 100 100 100 100 100 100 100 100 100 100 99 100 100 99 71 5 5 10 29 46 100
100 100 100 100 100 100 100 100 100 100 100 100 100 100 100 100 100 100 100 100 100 100 100 100 100 100 100 100 100 100 100 100 100 100 90 100 94 93 98 100 97 100 100 100
100 100 100 100 100 100 100 100 100 100 100 100 100 100 100 100 100 100 100 100 100 100 100 100 100 100 100 100 100 100 100 100 100 100 100 100 100 92 89 100 64 100 100 100
100 100 100 100 100 100 100 100 100 100 100 100 100 100 100 100 100 100 100 100 100 100 100 100 100 100 100 100 100 100 100 100 100 100 100 100 100 100 100 100 100 100 100 100
100 100 100 100 100 100 100 100 100 100 100 100 100 100 100 100 100 100 100 100 100 100 100 100 91 71 94 92 100 100 100 100 100 100 88 99 89 99 100 100 93 71 86 100
100 100 100 100 100 100 100 58 100 100 100 100 100 100 100 100 100 100 100 100 100 100 100 99 100 96 86 100 100 100 100 100 100 100 99 45 59 100 99 98 100 54 100 100
100 87 100 100 100 100 100 100 100 100 100 100 100 100 85 98 100 100 100 100 100 100 100 100 100 100 100 100 100 100 100 100 100 100 100 92 86 38 61 64 86 100 100 100
95 99 22 97 100 100 100 100 100 100 100 100 100 100 100 100 98 100 100 100 100 100 100 100 100 100 100 100 100 100 100 100 100 98 94 96 100 100 91 63 100 93 100 100
100 83 99 85 96 100 100 100 100 100 100 100 100 100 100 91 100 91 95 100 100 100 100 100 100 100 100 100 100 100 100 100 100 100 100 100 100 100 100 100 100 100 100 100
99 44 32 100 48 70 96 100 100 100 84 91 100 100 100 100 100 100 75 98 100 100 98 100 100 100 100 100 100 100 100 100 100 100 100 100 100 100 100 100 100 100 100 100
91 91 43 100 75 100 89 53 100 100 100 100 99 100 100 80 95 100 100 63 100 100 100 85 90 100 100 100 98 100 100 100 100 100 100 100 100 100 100 100 100 100 100 100
100 68 94 60 14 89 100 100 100 92 98 100 100 100 98 100 99 100 96 83 74 95 98 99 69 94 98 99 100 100 95 100 100 100 100 100 100 100 100 100 100 100 100 100
99 17 100 33 82 99 58 6 94 100 60 97 100 100 80 82 73 92 75 81 100 100 100 94 95 54 30 75 99 99 78 84 100 100 100 100 100 100 100 100 100 100 100 100

GFSNGP_prec_cloud_060.txt.gz
Cloud_Cover
0 0 1 0 0 0 0 0 5 0 46 0 100 95 100 81 4 0 13 15 41 100 99 100 0 0 0 0 0 0 0 0 0 0 0 0 0 0 0 0 0 0 0 0
42 5 5 0 0 0 0 0 0 96 3 5 100 41 6 5 22 14 85 71 63 100 82 92 100 4 5 0 0 0 0 0 0 0 0 0 0 0 0 0 0 0 0 0
6 97 74 75 4 0 0 0 0 1 0 27 100 49 96 100 100 70 81 97 92 71 97 99 31 100 100 10 3 0 0 0 0 0 0 0 0 0 0 0 0 0 0 0
85 100 99 0 5 20 3 0 0 0 0 26 100 97 65 41 100 52 5 19 12 16 19 100 100 100 100 100 5 2 0 0 0 0 0 0 0 0 0 0 0 0 0 0
100 100 64 21 10 99 100 3 0 0 0 0 84 100 90 100 98 100 94 75 18 5 20 18 59 100 100 100 0 0 0 0 0 0 0 0 0 0 0 0 0 0 0 0
99 100 98 12 100 68 24 0 0 0 0 0 0 11 100 82 86 40 51 46 60 11 5 5 31 4 50 1 0 0 0 0 0 0 0 0 0 0 0 0 0 0 0 0
98 88 73 100 100 100 79 4 1 0 0 2 45 99 62 98 25 12 6 98 86 6 2 0 0 0 0 0 0 0 5 5 0 0 0 0 0 0 0 0 0 0 0 0
100 95 83 43 51 96 22 5 2 0 0 0 24 85 52 4 74 99 67 53 100 100 91 82 10 38 0 0 0 0 5 5 2 0 2 16 0 0 0 0 0 0 0 0
7 85 59 32 91 48 47 17 4 0 0 0 54 88 100 90 42 78 99 100 100 100 100 72 33 35 0 0 3 5 2 5 5 4 5 5 0 0 5 0 0 0 0 0
100 100 99 100 50 79 100 99 33 5 0 29 100 55 44 95 97 93 100 100 100 100 93 96 100 100 58 5 1 1 4 5 5 5 2 5 1 0 0 0 0 1 2 0
100 100 100 100 100 99 91 55 11 4 4 46 100 17 33 10 92 74 100 100 100 100 99 100 100 100 86 39 10 5 0 3 5 5 5 0 1 6 1 0 0 0 0 0
100 100 100 100 100 100 100 100 95 100 100 100 100 29 20 6 100 88 100 100 100 100 83 100 100 100 90 36 43 15 0 2 5 5 5 4 0 84 92 61 47 13 56 0
100 100 100 100 100 100 100 100 100 100 100 100 100 82 100 65 100 100 100 100 100 100 100 100 100 100 100 88 77 73 30 54 4 25 5 5 5 36 75 67 100 100 100 100
100 100 100 100 100 100 100 100 100 100 100 100 100 100 100 100 100 100 94 100 100 100 100 100 100 100 100 91 100 98 100 44 24 4 67 11 12 100 31 7 6 1 87 34
100 100 100 100 100 100 100 100 100 100 100 100 100 100 100 100 100 100 100 100 100 100 100 100 100 100 100 100 100 100 100 74 74 66 76 100 71 99 100 47 78 71 6 54
100 100 100 100 100 100 100 100 100 100 100 100 100 100 100 100 87 100 100 100 100 100 100 100 100 100 100 100 98 100 100 100 100 100 100 24 93 100 100 100 98 100 95 54
100 100 100 100 100 100 100 100 100 100 100 100 100 100 100 100 100 100 100 100 100 100 100 100 100 100 100 100 100 100 100 100 100 100 100 100 100 100 100 100 100 100 100 100
100 100 100 100 100 100 100 100 100 100 100 100 100 100 100 100 100 100 100 100 100 100 100 100 100 100 100 100 100 100 100 100 100 100 100 100 100 100 100 100 100 100 100 100
93 100 100 100 100 100 100 100 100 100 100 100 100 100 100 100 100 100 100 100 100 100 100 100 100 100 99 39 44 100 100 100 100 100 100 100 100 100 100 100 97 94 100 90
99 88 100 100 100 100 100 100 100 100 100 100 100 100 100 100 100 100 100 100 100 100 100 100 100 100 99 94 100 100 83 77 77 100 100 100 100 100 100 100 100 100 100 100
9 100 52 98 100 99 100 100 100 100 100 100 100 100 100 100 100 100 100 100 100 100 100 100 100 100 100 100 98 72 85 100 75 84 100 81 54 87 98 100 100 100 100 100
99 31 64 68 100 100 95 100 100 84 100 100 100 100 100 100 100 97 100 100 100 100 100 100 100 100 100 100 100 100 100 100 100 100 100 100 100 100 100 100 100 100 100 100
100 29 93 95 44 77 75 80 91 100 100 100 94 99 100 100 100 100 100 100 100 100 100 100 100 100 100 100 100 100 100 100 100 100 100 100 100 100 100 100 100 100 100 100
100 26 77 3 44 55 80 11 93 100 100 100 100 99 100 100 100 100 90 100 100 100 100 100 100 100 100 100 100 100 100 100 100 100 100 100 100 100 100 100 100 100 100 100
13 59 86 89 23 97 91 74 100 100 83 100 100 100 94 100 100 100 100 86 84 83 100 66 100 100 100 89 100 100 99 100 100 100 100 100 100 100 100 100 100 100 100 100
62 26 100 33 24 27 76 14 94 50 82 82 96 100 100 100 100 92 100 100 99 94 77 100 100 99 100 100 100 72 67 60 63 88 98 100 100 100 100 100 100 100 100 100
59 99 94 39 81 4 22 11 92 20 38 100 99 95 100 100 71 97 100 58 99 100 96 96 86 89 100 100 100 88 57 36 20 8 80 100 100 100 100 100 100 100 100 100

GFSNGP_prec_cloud_063.txt.gz
Cloud_Cover
0 0 0 0 0 0 0 0 0 0 0 4 0 100 100 100 100 100 99 13 74 100 100 100 100 45 5 74 5 0 0 0 0 0 0 0 0 0 0 0 0 0 0 0
0 0 0 0 0 0 0 0 0 0 0 74 0 30 100 81 100 36 50 5 100 100 100 99 83 100 100 100 100 11 0 0 0 0 0 0 0 0 0 0 0 0 0 0
2 0 5 1 0 0 0 0 0 0 0 5 0 0 100 95 99 100 23 89 100 100 92 100 100 100 100 100 99 99 5 5 0 0 0 0 0 0 0 0 0 0 0 0
5 5 8 0 0 2 0 0 0 0 0 0 0 1 42 5 5 33 16 1 57 74 100 100 100 100 100 100 100 21 23 15 49 0 0 0 0 0 0 0 0 0 0 0
61 12 2 4 9 12 36 0 0 0 0 0 0 5 0 5 5 6 5 2 2 38 97 100 100 100 100 100 100 100 100 100 100 24 0 0 0 0 0 0 0 0 0 0
100 20 56 37 100 75 81 4 0 0 0 0 0 0 5 1 31 94 42 0 2 0 17 86 96 52 38 36 100 100 100 100 90 12 2 0 0 0 0 0 0 0 0 0
100 100 10 100 100 100 100 8 5 1 0 0 2 8 0 3 30 100 100 100 70 62 5 99 100 100 38 8 100 100 100 100 100 45 5 5 0 0 0 0 0 0 0 0
26 100 90 38 100 100 100 9 11 5 1 0 0 0 0 1 5 92 100 100 100 100 81 47 100 100 100 100 100 100 100 100 100 37 5 3 0 0 0 0 0 0 0 4
100 100 71 70 67 100 97 9 95 0 5 0 0 0 0 0 10 100 100 100 100 100 100 36 90 100 100 76 100 100 93 100 99 7 66 58 0 3 5 0 0 0 0 2
100 100 100 100 64 28 88 79 100 80 1 0 29 0 0 3 0 66 100 76 100 100 100 95 100 100 100 96 72 100 100 44 99 62 9 95 5 1 0 0 0 0 4 19
88 96 98 100 65 71 100 100 100 98 72 57 34 26 0 7 0 10 90 100 99 52 100 89 100 100 100 86 97 100 96 20 1 0 5 5 5 5 4 5 0 0 0 0
100 100 100 100 100 100 100 100 93 100 100 100 72 92 78 16 10 29 81 97 98 100 23 67 83 100 100 100 92 100 100 96 0 0 4 5 5 19 94 78 25 2 0 0
100 100 100 100 100 100 100 100 100 100 100 100 65 99 49 94 98 99 100 100 58 100 100 100 98 100 100 100 99 72 100 92 71 24 0 5 5 5 0 69 100 100 92 10
100 100 100 100 100 100 100 100 100 100 100 100 100 100 100 100 100 100 99 100 100 76 100 93 96 100 100 100 100 72 71 61 72 100 100 21 2 5 5 0 4 100 88 98
100 100 100 100 100 100 100 100 100 100 100 100 100 100 100 100 100 100 96 46 56 97 99 93 100 100 100 100 78 69 88 82 44 70 32 40 37 3 5 5 5 12 100 100
100 100 100 100 100 100 100 100 100 100 100 100 100 100 100 100 100 100 100 100 71 98 59 85 100 100 100 100 100 91 100 88 98 100 100 94 10 8 17 9 63 100 98 100
99 100 100 100 100 100 100 100 100 100 100 100 100 100 100 100 100 100 100 100 100 95 88 96 94 100 100 100 100 100 80 100 100 70 71 72 100 3 40 54 82 100 98 100
50 64 100 100 100 100 100 100 100 100 100 100 100 100 100 100 100 100 100 100 100 100 100 75 100 100 100 100 100 100 100 100 100 99 100 100 92 99 100 100 100 100 100 100
100 82 100 100 100 100 100 100 100 100 100 100 100 100 100 99 100 100 98 89 100 100 97 89 100 100 100 100 100 100 100 100 100 100 100 100 100 100 100 100 100 100 100 100
78 70 23 92 100 100 100 100 100 100 100 100 100 100 100 100 100 100 100 100 100 100 100 100 100 100 100 100 100 100 100 100 100 100 100 100 100 100 100 100 100 100 100 100
87 94 11 5 30 83 100 100 100 100 100 100 100 100 100 100 100 100 100 100 100 100 100 100 100 100 100 100 100 100 100 100 100 100 100 100 100 100 100 100 100 100 100 100
61 100 100 47 5 3 63 100 100 100 100 100 100 100 100 100 100 100 100 100 100 100 100 100 100 100 100 100 100 100 100 100 100 100 100 100 100 100 100 100 100 100 100 100
26 80 100 100 52 32 36 99 97 100 100 100 100 100 100 100 100 100 100 100 100 100 100 100 100 100 100 100 100 100 100 100 100 100 100 100 100 100 100 100 100 100 100 100
5 5 9 94 100 99 99 94 82 76 100 100 100 100 100 100 100 100 100 100 100 100 100 98 100 100 100 100 100 100 100 100 100 100 100 100 100 100 100 100 100 100 100 100
19 99 27 4 96 96 84 93 27 34 91 13 80 100 100 100 100 100 100 100 100 100 100 100 100 100 100 100 100 100 100 100 100 100 100 100 100 100 100 100 100 100 100 100
67 41 64 94 100 100 98 98 5 5 5 5 27 78 100 100 100 100 100 100 99 100 100 100 100 98 100 100 100 100 100 100 100 100 100 100 100 100 100 100 100 100 100 100
13 100 100 100 100 67 44 70 13 75 0 5 5 79 90 100 100 100 100 100 100 99 100 100 100 93 100 100 100 100 99 67 32 100 86 86 100 100 100 100 100 100 100 100

GFSNGP_prec_cloud_069.txt.gz
Cloud_Cover
100 47 5 5 5 0 0 0 0 0 0 0 78 66 42 0 45 97 58 33 56 42 8 37 100 100 100 100 32 5 0 0 0 0 0 0 0 0 0 0 0 0 0 0
100 100 90 5 5 4 0 0 0 0 0 0 0 0 0 0 0 29 97 100 92 92 18 24 100 100 100 92 80 12 5 0 0 0 0 0 0 0 0 0 0 0 0 0
74 100 100 100 7 5 1 0 0 0 0 0 0 0 59 5 0 10 30 12 95 100 99 100 99 100 100 100 100 100 12 3 0 5 20 50 47 0 0 0 0 0 0 0
6 92 100 98 7 5 5 0 0 0 0 0 0 16 6 0 0 0 15 23 17 84 100 98 76 100 100 100 100 100 68 10 4 5 71 20 50 90 0 0 0 0 0 0
0 4 2 15 100 82 19 4 0 0 0 0 0 0 0 0 0 0 0 5 39 6 70 70 64 100 96 100 100 76 8 74 86 94 5 5 5 6 13 0 0 0 0 0
16 5 5 1 1 0 5 5 0 0 0 0 0 2 2 0 0 0 0 0 99 22 65 29 85 94 100 71 100 99 100 100 100 100 100 52 100 100 82 43 38 9 0 0
5 10 4 0 0 2 4 4 4 0 0 0 0 0 3 0 0 0 0 2 35 100 76 78 67 21 100 98 100 98 100 100 96 100 100 100 100 99 100 66 43 70 78 1
56 59 36 5 3 4 22 0 0 0 0 0 2 23 5 20 0 0 0 0 51 72 99 56 100 96 100 100 100 100 100 100 100 100 100 100 100 100 96 96 85 5 76 60
13 4 4 5 5 4 4 4 2 4 0 0 0 90 40 71 47 0 0 0 0 87 86 94 65 100 99 100 100 100 100 100 100 100 100 100 100 99 85 81 100 64 43 64
2 2 4 14 27 32 21 26 3 5 8 17 53 100 53 39 100 79 0 0 0 10 60 99 24 91 99 100 100 100 100 91 100 100 100 100 100 100 100 100 100 16 88 33
5 2 1 10 5 16 66 81 97 99 100 100 100 100 71 53 5 83 7 0 0 35 90 78 61 10 98 100 100 100 92 100 100 100 100 100 90 88 98 100 100 100 100 100
98 5 5 4 14 66 69 100 100 100 100 100 100 100 100 84 65 4 5 3 0 8 99 100 95 12 59 100 100 100 100 100 100 100 100 100 100 100 99 100 100 100 100 100
4 44 5 5 5 51 67 98 100 100 100 100 100 100 100 100 98 99 99 44 32 2 98 100 100 3 5 25 100 100 100 100 100 100 100 100 100 100 100 100 100 100 92 100
20 0 48 97 36 100 52 100 100 100 100 100 100 100 100 100 100 100 100 100 92 100 100 100 79 1 0 0 39 61 74 100 100 100 100 100 100 100 100 100 100 100 94 100
5 5 5 4 29 82 5 87 97 100 100 100 100 100 100 100 100 100 100 100 100 100 100 79 20 21 4 20 68 64 50 95 100 74 91 100 100 100 100 100 100 88 100 100
9 77 5 5 5 5 5 5 6 98 99 100 62 84 100 100 100 100 100 100 100 100 100 100 100 96 100 70 59 100 98 98 100 100 100 100 100 100 100 100 100 100 100 100
100 100 100 63 5 5 36 26 5 58 80 100 36 95 19 87 100 100 100 100 100 100 100 100 100 100 100 100 100 100 100 93 96 100 100 100 100 100 100 100 100 100 100 100
100 100 100 100 100 78 27 37 5 5 5 21 38 86 95 100 100 100 100 100 100 100 100 100 100 100 100 100 100 100 73 96 100 100 100 99 100 100 100 100 100 100 100 100
94 96 89 90 62 46 5 21 14 100 85 5 25 92 91 100 100 100 100 100 100 100 100 100 100 100 100 100 100 100 100 100 100 97 100 98 100 100 100 100 100 100 100 100
100 100 100 98 100 72 27 5 5 28 25 84 56 34 100 100 100 100 100 100 100 100 100 100 100 100 100 100 100 100 100 100 100 100 85 100 100 100 100 100 100 100 100 100
73 100 100 99 60 95 79 83 100 10 9 67 61 5 65 100 100 100 100 100 100 100 100 100 100 100 100 100 100 100 100 100 100 100 95 100 100 100 100 100 100 100 100 100
81 100 100 99 77 69 60 100 100 25 5 5 41 5 5 90 100 100 100 100 100 100 100 100 100 100 100 100 100 100 100 100 100 100 100 100 100 100 100 100 100 100 100 100
100 100 100 100 98 19 50 50 5 5 5 5 49 83 58 54 96 100 100 100 100 100 100 100 100 100 100 100 100 100 100 100 100 100 100 100 100 100 100 100 100 100 100 100
100 100 100 90 89 86 8 100 21 5 5 2 5 98 75 100 100 100 100 100 100 100 100 100 100 100 100 100 100 100 100 100 100 100 100 99 100 100 100 100 100 100 100 100
37 72 100 100 100 100 96 35 71 100 17 0 2 83 100 100 100 100 100 100 100 100 100 100 100 100 100 100 100 100 100 100 100 100 100 100 100 100 100 100 100 100 100 100
83 48 76 94 100 100 100 95 74 99 74 2 0 13 98 94 100 98 100 100 100 100 100 100 100 100 100 100 100 100 100 100 100 100 100 100 100 100 100 100 100 100 100 100
98 100 92 82 54 86 100 100 92 31 46 5 1 5 96 71 100 100 100 100 100 100 100 100 100 100 100 100 100 100 100 100 100 100 100 100 100 100 100 100 100 100 100 100

GFSNGP_prec_cloud_072.txt.gz
Cloud_Cover
18 0 0 0 0 0 0 0 0 0 0 0 69 83 11 6 68 95 100 100 100 100 100 97 82 91 100 100 100 100 54 3 0 2 40 6 0 0 0 0 0 0 0 0
100 65 12 5 2 0 0 0 0 0 0 0 6 0 0 0 0 30 61 100 100 100 100 100 100 100 100 100 100 100 100 20 0 5 0 22 4 0 0 0 0 0 0 0
100 96 24 5 5 5 5 0 0 0 0 0 0 2 0 0 0 0 0 2 46 99 100 100 100 100 97 100 100 100 100 49 5 1 4 0 0 0 0 0 0 0 0 0
100 95 9 5 5 4 5 5 1 0 0 0 0 2 0 0 0 0 0 0 0 21 27 100 100 100 100 100 99 100 97 100 80 4 5 0 0 0 0 0 0 0 0 0
42 100 79 26 5 5 0 0 1 0 0 0 0 0 0 0 0 0 0 0 0 0 2 1 92 100 59 100 100 100 96 50 27 5 3 0 0 0 0 1 0 0 0 0
5 5 5 5 5 5 5 2 0 0 0 0 0 0 0 0 0 0 0 0 0 5 0 0 15 79 86 44 70 100 100 82 84 80 100 60 3 0 1 4 0 0 0 0
5 8 2 2 0 0 0 2 13 0 0 0 0 0 0 0 0 0 0 0 0 0 45 2 0 95 88 34 98 100 100 99 74 99 100 100 100 78 24 18 91 11 0 0
39 7 5 0 0 0 0 0 0 0 0 0 0 0 0 0 0 0 0 0 0 0 0 14 18 3 39 79 43 97 99 98 100 96 100 100 100 100 48 88 100 85 30 8
4 4 0 4 4 0 0 0 0 0 0 0 11 6 0 0 0 0 0 0 0 0 0 0 0 77 58 91 14 84 100 100 80 100 92 93 99 100 100 70 81 100 100 62
1 0 0 0 0 0 0 0 3 5 0 41 61 20 99 48 0 0 0 0 0 0 0 0 0 32 100 84 100 20 64 97 100 91 100 100 100 98 96 100 100 74 100 100
4 5 4 2 0 0 0 2 5 5 22 100 100 100 100 100 74 0 0 0 0 0 0 0 0 0 74 89 89 99 64 57 100 100 100 100 95 94 82 100 100 99 97 84
5 1 1 0 5 3 4 5 8 76 92 35 92 100 100 100 99 90 60 0 0 0 0 0 26 31 89 61 92 58 88 95 99 90 100 100 100 100 100 69 99 100 100 93
51 5 1 0 0 1 48 36 58 100 100 100 100 100 100 100 100 100 100 100 99 100 79 3 56 95 100 95 59 79 77 96 93 100 100 100 100 100 100 95 94 100 100 100
68 16 18 52 8 0 3 12 20 22 100 100 100 93 100 100 100 100 100 100 100 100 100 100 100 74 53 100 40 92 100 79 87 100 100 100 100 100 100 100 100 98 100 100
26 88 100 42 14 10 2 5 5 5 6 41 5 5 57 100 100 100 100 100 100 100 100 100 100 44 64 100 100 100 100 95 96 100 100 100 100 100 100 100 100 100 100 100
87 60 48 71 11 5 30 5 5 3 5 5 70 21 98 49 87 100 100 100 100 100 100 100 100 100 100 100 100 100 100 100 100 100 100 100 100 100 100 100 100 100 100 99
100 100 100 38 33 100 100 69 86 89 5 5 18 100 100 100 91 100 100 100 100 100 100 100 100 100 100 100 100 100 100 100 100 100 100 100 100 100 100 100 100 100 100 85
77 60 90 99 96 100 66 7 18 17 5 5 8 100 100 98 100 100 100 100 100 100 100 100 100 100 100 69 86 100 100 100 100 100 100 100 100 100 100 100 100 100 100 100
100 100 100 100 59 82 93 82 27 15 5 8 5 56 100 79 100 100 100 100 100 100 100 93 100 100 100 100 100 100 100 100 100 100 100 100 100 100 100 100 100 100 100 100
92 98 100 100 100 100 100 100 81 5 15 6 5 9 89 5 42 48 98 100 100 100 100 88 100 100 100 100 100 100 100 100 100 100 100 100 100 100 100 100 100 100 100 100
94 69 14 70 91 25 67 100 100 100 25 5 5 5 5 5 5 50 62 93 79 66 100 65 100 100 100 100 100 100 100 100 100 100 100 100 100 100 100 100 100 100 100 100
92 81 100 100 100 100 100 100 100 79 6 4 5 5 5 5 5 8 80 97 100 96 99 83 100 100 100 100 100 100 100 100 100 100 100 100 100 100 100 100 100 100 100 100
80 100 100 100 100 100 100 100 95 100 28 6 5 5 5 5 5 27 49 92 99 91 100 100 100 100 100 100 100 100 100 100 100 100 100 100 100 100 100 100 100 100 100 100
98 100 100 100 100 100 100 100 86 87 24 5 2 23 62 5 5 45 94 100 100 100 100 100 100 100 100 100 100 100 100 100 100 100 100 100 100 100 100 100 100 100 100 100
99 100 100 100 100 100 100 100 100 100 96 19 6 75 83 70 30 74 54 100 100 100 100 100 100 100 100 100 100 100 100 100 100 100 100 100 100 100 100 100 100 100 100 100
99 96 100 99 100 100 100 100 100 100 100 14 21 100 70 71 83 81 77 100 100 100 100 100 100 100 100 100 100 100 100 100 100 100 100 100 100 100 100 100 100 100 100 100
11 6 74 100 100 100 94 98 100 100 100 89 96 22 33 5 43 98 100 92 94 100 100 100 100 100 100 100 100 100 100 100 100 100 100 100 100 100 100 100 100 100 100 100

GFSNGP_prec_cloud_075.txt.gz
Cloud_Cover
0 0 0 0 0 0 0 0 0 0 0 0 4 7 0 2 10 61 100 94 100 100 100 100 100 100 100 96 61 100 66 74 29 5 38 100 97 20 0 0 0 0 0 0
100 65 5 0 0 0 0 0 0 0 0 0 10 6 0 0 0 0 1 42 26 63 90 100 100 100 100 100 100 100 100 100 5 78 5 5 31 40 0 0 0 0 0 0
90 93 99 99 12 0 0 0 0 0 0 0 0 0 0 0 0 0 0 0 16 73 96 56 99 100 100 100 100 100 99 100 99 96 99 34 3 0 0 0 0 0 0 0
100 100 66 6 93 80 50 3 0 0 0 0 0 0 0 0 0 0 0 0 0 1 45 53 87 100 100 100 100 100 100 100 100 100 100 90 26 4 0 0 0 0 0 0
75 28 8 5 23 5 18 23 5 3 0 0 0 0 0 0 0 0 0 0 0 0 0 43 48 12 51 95 100 100 100 100 96 100 100 100 93 48 39 39 4 0 0 0
31 5 5 5 5 5 5 5 5 0 0 0 0 0 1 0 0 0 0 0 0 0 0 0 11 92 57 8 29 57 98 100 100 98 100 99 100 62 69 76 26 4 0 0
5 3 3 5 5 5 5 16 32 0 0 0 0 0 0 0 0 0 0 0 0 0 0 0 0 0 0 8 47 5 5 90 100 100 98 100 94 98 53 57 66 75 55 14
37 10 5 4 0 1 1 3 0 0 0 0 0 0 0 0 0 0 0 0 0 0 0 0 0 0 0 0 25 19 0 7 28 80 94 100 96 100 100 100 99 98 100 84
2 4 5 5 5 0 0 0 0 0 0 0 0 0 0 0 0 0 0 0 0 0 0 0 0 0 0 0 17 39 0 0 2 13 100 100 85 92 100 64 43 59 98 79
0 0 0 0 0 0 0 0 0 0 0 4 6 10 10 10 9 2 0 0 0 1 0 0 0 0 0 11 83 14 5 0 5 16 99 100 100 100 100 100 100 100 90 68
4 0 0 0 0 0 0 0 0 0 3 29 55 53 85 70 94 65 67 45 50 67 54 16 0 0 0 0 95 44 4 0 2 21 18 100 95 63 100 100 100 88 77 94
0 3 4 2 0 0 0 0 0 4 7 38 72 38 99 81 39 82 32 17 100 100 100 100 100 87 13 17 96 40 41 52 10 3 53 97 64 76 16 100 99 79 99 91
0 0 1 5 7 8 5 5 5 5 5 5 6 38 44 39 95 72 98 100 100 100 100 100 48 100 100 99 61 97 84 60 69 8 5 33 100 93 100 52 64 100 98 100
20 5 3 4 5 3 5 5 0 0 0 2 15 6 10 47 41 45 25 88 100 100 82 100 99 100 100 100 100 100 94 73 87 31 20 50 59 94 100 100 94 100 100 96
92 100 5 4 5 5 4 7 2 3 0 0 5 6 9 34 96 76 74 42 100 100 100 100 100 100 100 100 100 61 80 43 57 84 66 67 95 96 90 100 100 80 63 100
94 93 94 97 26 5 5 5 1 0 0 0 0 5 6 12 75 46 99 100 100 100 100 100 100 100 100 98 100 100 94 99 99 99 100 100 100 100 100 100 100 99 98 100
100 100 100 100 100 100 51 6 18 36 24 13 13 5 11 37 10 75 89 100 100 94 88 100 56 47 100 100 100 100 100 100 100 100 100 100 100 100 100 100 100 100 100 100
100 100 100 100 81 68 85 99 95 95 97 90 86 25 6 4 14 82 81 97 100 91 32 100 100 96 73 100 100 100 100 100 100 100 100 100 100 100 100 100 100 100 100 100
95 100 100 100 100 100 99 88 39 98 81 97 58 20 5 5 8 84 100 41 39 63 43 79 100 100 100 100 100 100 100 100 100 100 100 100 100 100 100 100 100 100 100 100
33 49 73 56 100 100 97 94 95 69 62 33 20 73 44 5 1 23 54 29 100 77 43 52 89 100 100 100 100 100 100 100 100 100 100 100 100 100 100 100 100 100 100 100
25 56 95 100 98 64 96 96 100 63 15 39 42 48 5 5 0 5 18 46 8 54 20 32 55 100 100 100 100 100 100 100 100 100 100 100 100 100 100 100 100 100 100 100
86 51 10 32 75 85 84 100 95 96 51 5 13 9 9 9 0 5 5 5 5 5 56 90 73 97 100 100 100 100 100 100 100 100 100 100 100 100 100 100 100 100 100 100
41 46 100 44 71 100 99 100 100 100 67 67 87 7 32 8 5 5 5 70 17 14 31 78 87 77 100 100 100 100 100 100 100 100 100 100 100 100 100 100 100 100 100 100
100 100 99 86 100 100 100 100 100 100 100 100 100 42 5 5 5 23 5 78 24 85 20 82 95 100 100 99 100 100 100 100 100 100 100 100 100 100 100 100 100 100 100 100
41 97 98 90 100 100 100 100 100 100 97 100 98 100 55 18 5 18 6 12 5 3 52 100 100 100 100 100 100 100 100 100 100 100 100 100 100 100 100 100 100 100 100 100
12 61 96 100 100 96 100 100 100 100 100 100 88 50 83 51 5 5 5 47 7 28 9 100 100 100 100 100 100 100 100 100 100 100 100 100 100 100 100 100 100 100 100 100
38 9 41 80 49 100 100 100 100 100 100 100 73 94 100 73 13 5 24 89 54 100 86 100 100 100 100 100 100 100 100 100 100 100 100 100 100 100 100 100 100 100 100 100

GFSNGP_prec_cloud_078.txt.gz
Cloud_Cover
0 0 0 0 0 0 0 0 5 14 0 4 8 0 11 28 46 76 99 100 100 100 100 100 100 100 100 79 81 92 27 34 13 2 1 1 0 42 0 0 0 0 0 0
6 0 0 0 0 0 0 0 0 0 0 18 0 0 0 0 0 0 0 0 5 25 82 100 100 100 100 100 100 93 43 24 78 71 44 14 1 5 0 0 0 0 0 0
100 100 26 0 0 0 0 0 0 0 0 0 0 0 0 0 0 0 0 0 0 30 8 49 94 92 100 100 100 100 100 97 64 66 100 100 100 43 6 0 0 0 0 0
100 100 100 29 2 0 0 0 0 0 0 0 0 0 0 0 0 0 0 0 0 0 0 0 39 90 100 100 100 100 100 100 100 100 100 95 100 100 94 47 22 1 0 0
100 100 7 23 100 60 4 0 0 0 0 0 0 0 0 0 0 0 0 0 0 0 0 0 0 0 33 100 61 96 100 100 100 100 100 100 100 40 100 100 100 74 14 8
100 93 85 8 60 61 40 6 5 0 0 0 0 0 17 0 0 0 0 0 0 0 0 0 0 0 0 0 60 30 10 59 98 100 100 100 96 97 100 66 69 95 96 45
98 100 100 100 100 100 94 6 5 5 5 2 1 2 12 0 0 0 0 0 0 0 0 0 0 0 0 0 0 0 0 1 60 92 97 97 100 100 94 100 97 45 33 50
5 5 38 100 100 100 82 90 8 5 5 5 5 5 0 0 0 0 0 0 0 0 0 0 0 0 0 0 0 0 0 0 0 31 100 99 97 95 100 100 97 100 52 9
5 17 0 0 1 24 5 5 5 5 5 5 2 2 0 0 0 0 0 0 0 0 0 0 0 0 0 0 0 0 0 0 0 0 0 3 18 99 43 69 94 72 89 26
0 1 5 4 0 0 0 1 4 5 4 3 4 0 0 0 0 0 3 8 17 15 12 8 6 2 3 0 0 0 0 0 0 0 0 0 0 0 88 56 28 96 72 61
2 1 0 0 1 0 0 0 0 0 0 0 3 5 5 0 3 17 54 100 100 100 78 35 23 77 80 72 40 0 0 0 0 0 0 0 0 0 0 2 9 8 43 81
0 2 0 0 0 0 0 0 0 0 4 5 5 41 100 74 76 87 73 100 100 100 100 100 90 99 45 26 15 98 73 0 0 0 0 0 0 0 0 6 16 5 21 63
5 0 0 0 0 0 0 0 0 3 4 5 6 98 96 99 100 100 100 100 100 100 100 100 100 93 68 97 91 40 100 93 17 0 0 0 0 0 0 0 5 54 7 74
5 7 32 0 0 1 4 3 1 0 4 9 14 90 58 89 100 85 99 100 74 70 84 88 84 100 86 85 100 96 64 68 81 46 0 0 0 0 0 0 0 78 75 45
39 93 69 72 41 4 5 5 5 5 39 32 65 100 92 71 97 100 100 88 81 84 80 94 100 100 100 98 100 100 100 99 92 100 50 13 0 0 0 0 0 0 7 58
91 97 100 100 90 12 5 82 5 14 15 16 57 93 93 96 100 98 100 100 91 95 91 100 96 21 53 98 57 74 100 100 100 94 55 50 25 4 0 0 0 0 4 66
100 100 100 100 100 100 95 100 99 10 6 5 5 27 90 100 38 14 60 81 49 81 99 100 86 69 99 100 100 49 100 100 100 100 100 82 76 69 85 46 32 73 3 34
100 100 83 96 100 100 100 100 97 86 41 7 5 6 64 94 6 9 11 37 94 99 98 52 68 63 94 100 100 98 100 100 100 100 100 100 100 100 100 100 100 100 54 1
73 74 64 27 25 84 100 100 100 97 100 70 96 38 9 42 4 3 8 60 21 31 71 84 17 99 86 91 100 94 100 94 100 100 100 100 100 100 100 100 100 100 100 100
6 6 6 42 55 75 67 82 100 100 90 66 6 5 3 30 5 5 40 83 44 24 9 76 55 100 91 35 53 86 100 100 100 100 100 100 100 100 100 100 100 100 100 100
20 28 40 90 100 92 13 99 88 96 100 27 8 7 5 1 5 5 31 33 46 36 5 5 67 71 45 55 100 100 100 100 100 100 100 100 100 100 100 100 100 100 100 100
91 100 100 93 72 38 56 32 51 97 100 99 82 26 36 5 8 19 14 12 41 5 4 22 17 15 5 65 100 100 100 100 100 100 100 100 100 100 100 100 100 100 100 100
61 39 60 68 30 58 55 69 80 97 53 100 100 100 83 75 70 96 97 99 49 51 2 5 5 5 5 67 59 100 100 100 100 100 100 100 100 100 100 100 100 100 100 100
0 1 5 29 40 44 96 100 100 100 100 100 100 100 100 99 74 78 97 94 24 4 4 4 22 5 5 81 54 100 100 100 100 100 100 100 100 100 100 100 100 100 100 100
4 4 25 53 69 100 58 99 100 100 100 86 100 100 100 100 95 90 96 100 71 7 99 65 5 5 43 87 96 100 100 100 100 100 100 100 100 100 100 100 100 100 100 100
6 47 95 99 76 72 100 100 100 100 100 100 100 100 100 99 80 20 100 94 72 84 97 100 52 90 100 100 100 100 100 100 100 100 100 100 100 100 100 100 100 100 100 100
56 22 92 79 63 50 76 100 100 100 100 100 100 100 100 100 95 98 59 99 100 100 100 100 100 100 100 100 100 100 100 100 100 100 100 100 100 100 100 100 100 100 100 100

GFSNGP_prec_cloud_084.txt.gz
Cloud_Cover
100 100 31 0 0 14 4 1 100 100 16 33 26 78 86 53 95 81 100 96 40 16 61 100 100 100 98 94 90 99 73 100 100 100 79 64 40 0 0 0 0 0 1 1
100 84 1 6 3 4 0 0 87 39 100 95 100 95 80 30 2 0 0 81 98 96 47 24 12 14 100 100 100 100 100 46 54 100 100 54 3 39 6 1 0 0 0 0
8 1 0 3 16 0 0 32 73 9 100 66 3 17 28 0 0 0 0 0 0 2 5 5 16 96 100 100 100 100 100 100 100 100 84 83 22 4 5 47 59 2 1 0
90 89 73 82 1 0 0 0 63 90 84 82 5 2 0 0 0 0 0 0 0 0 0 0 0 51 100 100 100 100 100 100 95 84 84 79 48 95 48 24 49 93 4 0
100 99 93 4 2 4 2 78 3 42 100 100 28 0 0 0 0 0 0 0 0 0 0 0 0 0 5 100 100 100 100 100 100 91 83 66 53 75 100 100 89 74 7 5
100 100 55 100 8 0 0 68 4 32 100 100 78 0 0 0 0 0 0 0 0 0 0 0 0 0 0 2 100 100 100 100 100 100 24 95 61 66 93 100 94 21 37 49
100 100 100 100 48 98 61 23 0 0 8 12 8 1 0 0 0 0 0 0 0 0 0 0 0 0 0 0 0 48 100 100 100 100 76 4 2 4 5 45 88 78 30 5
100 100 100 100 84 68 100 64 1 4 64 9 1 0 2 36 0 0 0 0 0 0 0 0 0 0 0 0 0 0 0 5 27 8 3 56 71 0 0 5 12 72 74 100
100 100 92 93 98 100 100 100 98 99 44 2 0 0 0 0 0 0 0 0 0 0 0 0 0 0 0 0 0 0 0 0 0 0 0 0 2 6 0 0 0 0 25 66
92 42 15 83 100 100 100 100 100 65 19 94 31 2 0 0 0 4 37 0 0 0 0 17 0 6 0 0 0 0 0 0 0 0 0 0 0 0 0 0 0 0 0 10
8 53 5 4 55 100 100 100 100 100 100 100 100 98 18 33 12 9 28 23 6 9 24 33 21 20 24 22 11 7 0 0 0 0 0 0 0 0 0 0 0 0 0 0
81 50 31 94 35 7 6 81 100 100 100 100 100 100 100 73 17 20 42 25 34 28 53 50 28 34 23 20 20 20 19 2 0 0 0 0 0 0 0 0 0 0 0 0
6 46 19 5 5 6 7 5 4 70 100 100 76 77 100 100 18 5 5 5 5 23 38 31 57 89 76 12 20 16 8 0 0 0 0 0 0 0 0 0 0 0 0 0
73 6 14 8 9 5 5 5 5 5 5 5 10 7 6 86 96 100 98 83 70 41 35 40 38 33 100 96 3 2 0 0 0 0 0 0 0 0 0 0 0 0 0 2
100 61 53 99 100 96 75 16 11 5 6 8 6 4 11 32 80 65 99 100 100 100 100 97 70 34 39 10 13 1 0 2 0 0 0 0 0 0 0 0 0 0 0 0
81 83 73 93 100 100 100 100 93 8 6 14 35 68 1 18 27 61 32 1 6 36 22 16 13 11 6 1 0 2 0 4 0 0 1 4 0 22 32 2 0 0 0 0
100 100 100 100 100 100 98 86 100 100 92 46 67 68 4 1 32 3 10 74 9 52 3 3 52 0 0 9 0 3 5 2 0 0 4 7 15 81 100 69 15 5 1 0
100 91 62 99 100 100 86 100 100 100 96 100 100 59 23 49 36 5 18 86 1 25 6 33 49 13 3 26 0 2 5 1 0 1 3 5 5 9 58 47 70 59 33 18
88 100 100 70 59 22 56 99 100 100 100 98 95 80 45 98 99 46 73 75 47 45 44 21 91 29 5 52 5 4 5 5 5 5 5 24 14 10 21 10 53 100 100 95
48 5 5 20 19 32 57 81 100 98 72 96 86 84 77 93 100 100 98 97 36 91 100 63 18 26 13 34 0 4 5 20 33 40 78 93 100 100 98 30 58 99 100 100
23 98 79 5 83 20 97 54 36 58 42 100 90 100 27 59 69 100 100 100 100 100 96 50 5 60 9 4 5 5 30 57 90 100 32 89 100 100 100 100 100 100 98 100
95 99 86 100 81 36 43 76 100 100 100 34 100 99 37 5 69 34 19 100 89 92 74 22 65 14 5 1 1 5 34 93 100 72 62 27 99 100 100 100 100 100 100 100
100 100 100 100 80 51 65 93 74 40 93 100 100 100 94 100 77 100 80 52 57 15 65 22 81 9 4 0 0 10 77 8 54 58 85 48 81 100 100 100 100 100 100 100
82 79 96 72 61 16 4 2 3 16 44 10 18 72 87 100 100 100 100 100 99 11 10 4 5 5 5 4 1 5 5 26 63 52 50 59 59 93 100 100 100 100 100 100
67 88 98 4 30 48 15 6 22 66 100 53 13 39 42 29 100 100 100 100 100 100 22 30 94 54 5 5 3 20 5 33 40 59 46 99 100 100 100 100 100 100 100 100
5 5 46 7 25 36 24 93 68 61 78 99 100 90 100 61 96 100 100 100 100 100 90 29 97 65 51 27 85 8 74 37 7 59 100 100 100 100 100 100 100 100 100 100
16 2 9 98 99 27 22 8 17 34 95 100 100 100 100 100 100 100 100 100 100 100 100 100 100 100 84 30 81 60 23 72 26 100 100 100 100 99 100 100 100 100 100 100

GFSNGP_prec_cloud_087.txt.gz
Cloud_Cover
86 100 50 3 7 3 63 6 100 16 21 100 82 100 100 100 100 100 100 100 96 77 100 89 66 100 100 100 100 100 100 100 80 100 100 100 100 100 100 90 81 73 2 1
100 100 13 0 0 0 99 90 72 5 12 100 18 100 100 100 100 100 100 83 99 100 10 4 8 74 100 100 100 100 100 100 100 100 100 100 100 100 100 94 72 10 5 9
100 100 89 100 100 92 100 100 5 0 13 98 92 82 100 90 78 96 100 58 6 89 43 32 12 16 28 100 100 100 100 100 100 100 100 100 100 100 100 100 97 16 8 71
100 97 99 69 26 18 100 97 0 0 4 98 98 52 26 21 5 3 2 4 0 0 0 8 41 39 60 61 97 100 100 100 100 100 100 100 100 100 100 100 100 100 13 5
100 100 100 99 100 96 100 96 0 0 6 34 96 100 89 47 68 41 2 0 0 0 0 0 0 0 0 5 33 19 100 100 100 100 100 100 100 100 100 100 100 100 24 6
100 100 100 100 27 45 100 5 0 0 1 33 76 16 66 5 3 3 0 0 0 0 0 0 0 0 0 0 5 5 100 94 100 100 100 100 100 100 100 100 91 97 100 100
90 100 98 32 100 82 100 15 30 1 2 0 3 59 3 0 1 99 0 0 0 0 0 0 0 0 0 0 0 0 72 100 100 100 100 100 100 100 100 100 100 100 85 100
100 100 100 85 100 58 100 19 4 72 32 5 0 2 0 0 0 1 3 0 0 0 0 0 0 0 0 0 0 0 0 82 100 100 100 100 100 100 100 100 100 100 79 99
100 97 82 100 100 100 100 100 59 5 2 2 0 0 0 0 0 0 0 0 0 0 0 0 0 0 0 0 0 0 0 0 100 100 100 100 100 100 100 100 100 100 95 21
100 100 100 100 100 100 100 100 100 89 7 2 0 0 0 0 0 0 0 0 0 0 0 0 0 0 0 0 0 0 0 0 0 0 0 0 82 100 100 94 92 100 100 100
100 80 100 100 100 100 100 100 100 98 16 5 69 38 0 0 0 0 0 0 0 0 0 0 0 0 0 0 0 0 0 0 0 0 0 0 0 0 54 100 100 100 92 86
5 8 74 100 100 100 100 100 100 100 100 13 6 80 42 8 4 0 0 0 0 0 0 0 0 0 0 0 0 0 0 0 0 0 0 0 0 0 0 0 0 0 0 0
5 5 5 5 5 26 100 100 100 100 100 92 52 22 97 100 92 5 5 5 5 4 0 0 0 0 0 0 0 0 0 0 0 0 0 0 0 0 0 0 0 0 0 0
11 12 14 5 5 5 5 75 100 100 100 100 100 100 62 100 100 94 39 5 44 46 86 51 9 5 4 1 0 0 0 0 0 0 0 0 0 0 0 0 0 0 0 0
29 52 45 80 13 5 5 5 5 3 3 20 92 100 100 100 100 100 56 46 59 32 99 100 96 47 5 1 0 0 0 0 0 0 0 0 0 0 0 0 0 0 0 0
54 6 13 39 35 7 99 100 75 15 5 5 5 5 4 7 75 62 98 100 99 56 100 100 96 25 5 2 0 0 0 0 0 0 0 0 0 0 0 0 0 0 0 0
0 5 26 91 5 75 99 79 100 99 70 20 6 5 98 42 0 0 0 0 32 12 5 5 5 5 1 5 5 2 2 3 0 0 0 0 0 0 0 0 5 0 0 0
4 5 78 95 95 53 95 100 86 100 100 83 71 100 96 88 83 5 5 5 5 2 0 0 0 0 3 0 0 0 4 5 5 4 5 3 1 0 5 7 13 13 5 5
13 4 0 12 64 23 5 62 100 100 77 100 100 100 84 77 82 20 5 5 5 5 4 5 5 4 5 3 0 0 0 0 0 0 0 0 0 0 5 87 100 100 100 71
99 89 97 4 5 12 65 71 8 100 74 100 100 100 100 100 98 59 5 5 63 5 5 6 6 5 5 5 5 2 0 0 0 0 0 0 2 5 5 58 100 100 100 100
5 5 5 5 44 10 5 27 6 8 26 100 100 75 92 92 100 53 79 9 86 64 26 7 5 5 5 5 5 3 0 1 0 0 0 4 2 5 5 52 100 100 100 100
1 5 7 75 95 53 61 50 55 75 96 100 81 93 41 77 100 93 64 50 13 51 60 6 70 94 100 88 85 98 64 17 5 5 5 2 0 5 6 78 100 100 100 100
0 4 5 5 1 8 6 3 2 2 2 98 65 10 100 100 99 100 100 99 100 100 89 39 9 10 5 6 34 69 67 56 17 5 5 0 0 6 70 100 100 100 100 100
0 1 6 9 5 0 0 0 0 0 0 0 5 50 100 100 100 100 100 100 99 99 100 100 100 96 5 5 1 2 0 0 4 2 5 0 2 62 83 100 100 100 100 100
1 1 0 0 1 0 3 3 2 0 1 3 5 9 92 100 100 100 100 100 100 100 100 100 100 96 98 36 5 0 2 1 5 6 4 12 6 53 32 96 99 100 100 100
4 0 0 2 1 0 2 3 4 11 89 98 81 100 100 100 99 100 100 100 100 100 100 100 100 100 100 100 95 58 4 5 15 10 2 18 16 46 99 100 85 97 100 100
5 1 0 5 0 0 0 0 1 2 8 86 100 97 80 100 100 100 100 100 100 100 100 100 100 80 58 87 85 54 67 14 0 0 5 3 34 100 100 100 100 100 100 100

GFSNGP_prec_cloud_093.txt.gz
Cloud_Cover
70 3 0 5 0 0 0 0 0 0 5 24 63 100 100 64 100 100 100 100 100 100 100 100 100 100 100 100 100 100 100 100 100 100 97 100 100 96 95 100 100 100 100 100
100 33 4 46 3 0 3 0 0 3 5 5 7 9 61 42 100 100 100 100 100 100 100 100 100 100 100 100 100 100 100 100 100 100 100 98 97 79 100 100 100 100 100 100
100 100 99 16 100 54 97 46 26 28 8 40 52 100 100 100 50 99 100 100 100 100 100 100 100 100 100 100 100 100 100 100 100 100 100 100 100 88 100 100 100 100 100 100
100 100 100 42 60 26 54 5 5 25 56 62 97 100 100 42 3 94 100 100 100 100 100 100 100 100 100 100 100 100 100 100 100 100 100 100 100 100 100 100 100 100 100 100
100 100 94 97 6 38 2 50 4 24 6 43 99 89 100 100 100 100 97 100 99 100 100 100 100 100 100 100 100 100 100 100 100 100 100 100 100 100 100 100 100 100 100 100
100 100 100 100 29 58 5 64 86 80 36 0 0 0 39 95 100 100 100 100 60 88 100 100 100 100 88 36 100 100 100 100 100 100 100 100 100 100 100 100 100 100 100 100
100 100 100 100 66 95 99 16 66 100 3 5 2 3 1 3 56 100 100 76 99 100 52 88 92 89 100 11 28 54 100 100 100 100 100 100 100 100 100 100 100 100 100 100
96 100 100 100 100 97 100 100 92 44 38 5 36 90 80 86 100 100 98 32 5 21 51 98 11 52 5 44 22 0 5 94 100 100 100 100 100 100 100 100 100 100 100 100
66 98 100 100 92 100 100 100 100 100 100 100 99 100 100 100 100 91 15 16 5 5 10 5 86 5 5 5 2 1 48 100 100 100 100 100 100 100 100 100 100 100 100 100
100 100 100 100 100 100 100 100 100 100 100 100 100 100 100 100 100 100 100 100 100 100 100 41 5 14 5 1 4 3 0 97 100 100 100 100 100 100 100 87 96 100 100 100
10 100 100 100 100 100 100 100 100 100 100 100 100 100 100 100 100 100 100 95 54 5 5 80 63 62 0 0 1 0 0 1 87 100 100 100 100 100 71 20 4 99 100 100
91 5 81 100 100 100 100 100 100 75 100 99 100 97 79 87 97 85 66 30 8 5 5 0 0 0 0 0 0 0 0 0 0 21 72 80 60 6 35 6 5 4 5 29
98 97 74 30 13 100 100 100 100 100 100 46 100 100 100 5 73 100 100 100 57 5 5 5 0 0 0 0 0 0 0 0 0 0 0 0 0 0 0 0 0 0 0 0
11 84 100 100 13 3 30 100 100 100 100 100 100 92 86 77 12 26 88 100 100 94 5 3 0 0 0 0 0 0 0 0 0 0 0 0 0 0 0 0 0 0 0 0
0 2 14 56 64 71 34 15 7 96 100 100 99 36 5 17 4 9 100 100 100 100 100 43 7 3 1 0 0 0 0 0 0 0 0 0 0 0 0 0 0 0 0 0
0 0 0 0 2 30 88 90 59 57 22 100 100 90 53 16 60 6 63 100 100 94 62 7 5 5 3 1 4 5 4 0 0 0 0 0 0 0 0 0 0 0 0 0
0 0 0 0 0 0 0 0 3 94 98 100 100 99 46 85 53 24 50 24 33 30 49 96 95 74 5 5 5 5 3 3 5 5 0 0 1 3 3 4 5 0 1 2
0 0 0 0 0 0 0 0 0 1 10 100 100 99 99 44 72 12 64 100 100 100 100 100 91 99 100 100 70 67 64 22 6 5 5 5 4 4 5 4 5 1 1 0
0 0 2 2 0 4 5 0 0 0 4 28 70 33 84 99 52 99 68 70 96 83 98 100 100 100 94 98 62 28 17 62 91 77 29 5 5 5 5 5 5 5 5 5
0 0 0 0 0 0 0 0 0 0 0 0 1 19 75 100 92 93 97 74 98 95 100 16 5 5 61 24 47 53 5 25 63 48 35 41 7 5 5 5 5 4 2 5
1 0 0 0 1 1 1 5 1 0 1 5 5 5 5 93 100 67 98 100 10 100 100 94 42 10 5 5 5 5 5 4 5 8 32 30 16 8 5 5 4 5 5 5
14 5 3 0 0 0 0 0 0 0 0 4 34 100 97 89 82 38 97 88 95 100 100 100 100 99 66 84 18 5 5 5 5 1 0 0 0 5 12 8 11 12 3 1
13 6 24 10 4 1 0 0 0 0 0 0 0 0 8 2 2 41 59 71 100 100 100 100 100 100 100 93 11 5 5 5 8 6 2 2 0 3 9 6 7 8 12 6
9 5 45 98 9 27 10 5 4 1 0 0 0 4 27 34 22 19 2 0 5 10 100 100 100 100 100 100 100 100 65 49 18 5 5 1 0 4 14 11 13 14 16 15
100 79 100 100 100 34 24 5 5 1 1 1 0 1 61 99 100 100 83 46 14 5 61 100 100 100 100 100 100 100 99 98 100 82 73 5 4 3 9 19 10 3 11 12
89 9 100 100 100 100 72 7 5 4 2 0 3 5 6 25 85 100 100 100 100 96 94 100 100 100 100 100 100 100 100 100 100 100 79 44 7 4 12 16 19 12 6 7
100 96 100 100 100 100 72 50 5 2 0 0 2 0 0 6 30 100 100 100 100 100 100 100 100 100 100 100 100 100 100 100 100 98 28 14 5 4 6 6 11 28 27 22